Location: Unspecified
(49.2170°N, 0.0000°E)
Time: 22:16:04
(UTC+00:00)

Transit 2A - Pass Details

Date: 25 June 2019
Orbit: 600 x 959 km, 66.7° (Epoch: 13 October)

Event Time Altitude Azimuth Distance (km) Brightness Sun altitude
Rises 02:09:59 0° 266° (W) 3,637 9.2 -12.0°
Reaches altitude 10° 02:13:10 10° 280° (W) 2,680 8.6 -11.8°
Maximum altitude 02:18:04 23° 332° (NNW) 1,862 8.4 -11.4°
Drops below altitude 10° 02:22:48 10° 23° (NNE) 2,572 10.2 -11.0°
Sets 02:25:47 0° 38° (NE) 3,458 11.6 -10.7°
